Location: Newark
(45.2500°N, 7.5833°E)
Time: 05:01:19
(UTC+00:00)

N. Korean satellite - Pass Details

Date: 22 December 2019
Orbit: 454 x 508 km, 97.2° (Epoch: 20 January)

Event Time Altitude Azimuth Distance (km) Brightness Sun altitude
Rises 16:45:21 0° 178° (S) 2,578 10.6 -9.3°
Reaches altitude 10° 16:47:28 10° 183° (S) 1,693 9.7 -9.7°
Maximum altitude 16:51:02 51° 260° (W) 626 7.6 -10.3°
Drops below altitude 10° 16:54:34 10° 338° (NNW) 1,679 9.3 -10.8°
Sets 16:56:40 0° 343° (NNW) 2,555 10.2 -11.2°
